Change the Weather History Date:

Sunday, December 11, 2011

  Actual Average Record
Temperature  
Mean Temperature 32 °F -  
Max Temperature 44 °F 23 °F 51 °F (1913)
Min Temperature 21 °F 4 °F -27 °F (1977)
Degree Days  
Heating Degree Days 32    
Moisture  
Dew Point 24 °F    
Average Humidity 75    
Maximum Humidity 91    
Minimum Humidity 48    
Precipitation  
Precipitation 0.00 in - - ()
Sea Level Pressure  
Sea Level Pressure 30.04 in    
Wind  
Wind Speed 10 mph (SSW)    
Max Wind Speed 15 mph    
Max Gust Speed 24 mph    
Visibility 8 miles    
Events      
Averages and records for this station are not official NWS values.
T = Trace of Precipitation, MM = Missing Value Source: NWS Daily Summary

Daily Weather History Graph

Daily Weather History Graph

Search for Another Location

Airport or City:

Trip Planner

Search our weather history database for the weather conditions in past years. The results will help you decide how hot, cold, wet, or windy it might be!

Date:

Astronomy

Dec. 11, 2011 Rise Set
Actual Time 7:30 AM CST 4:13 PM CST
Civil Twilight 6:55 AM CST 4:48 PM CST
Nautical Twilight 6:18 AM CST 5:26 PM CST
Astronomical Twilight 5:41 AM CST 6:02 PM CST
Moon 5:24 PM CST (12/11) 8:18 AM CST (12/11)
Length of Visible Light 9h 52m
Length of Day
8h 43m
Full, 99% of the Moon is Illuminated
Dec 11
Full
Dec 17
Last Quarter
Dec 24
New
Jan 1
First Quarter
Jan 9
Full

Hourly Weather History & Observations

Time (CST) Temp. Windchill Dew Point Humidity Pressure Visibility Wind Dir Wind Speed Gust Speed Precip Events Conditions
12:15 AM 23.0 °F 14.7 °F 19.4 °F 86% 30.09 in 7.0 mi SW 6.9 mph - N/A   Overcast
12:35 AM 23.0 °F 13.1 °F 19.4 °F 86% 30.08 in 5.0 mi SSW 9.2 mph - N/A   Overcast
12:55 AM 23.0 °F 13.9 °F 19.4 °F 86% 30.07 in 5.0 mi SSW 8.1 mph - N/A   Overcast
1:15 AM 22.5 °F 14.1 °F 19.2 °F 87% 30.08 in 5.0 mi SSW 6.9 mph - N/A   Overcast
1:35 AM 22.1 °F 12.8 °F 18.9 °F 87% 30.07 in 5.0 mi SSW 8.1 mph - N/A   Overcast
1:55 AM 21.9 °F 13.4 °F 18.9 °F 88% 30.07 in 5.0 mi SSW 6.9 mph - N/A   Overcast
2:15 AM 22.1 °F 12.0 °F 19.2 °F 89% 30.07 in 5.0 mi SSW 9.2 mph - N/A   Overcast
2:35 AM 22.5 °F 12.4 °F 19.8 °F 89% 30.07 in 4.0 mi SSW 9.2 mph - N/A   Overcast
3:15 AM 23.0 °F 11.1 °F 20.3 °F 89% 30.06 in 3.0 mi South 12.7 mph - N/A   Overcast
3:35 AM 23.0 °F 13.1 °F 20.7 °F 91% 30.06 in 3.0 mi SSW 9.2 mph - N/A   Overcast
3:55 AM 23.0 °F 12.4 °F 20.8 °F 91% 30.05 in 3.0 mi SSW 10.4 mph 16.1 mph N/A   Overcast
4:15 AM 23.0 °F 12.4 °F 20.8 °F 91% 30.04 in 3.0 mi South 10.4 mph - N/A   Overcast
4:35 AM 23.0 °F 12.4 °F 20.8 °F 91% 30.04 in 4.0 mi South 10.4 mph - N/A   Overcast
4:55 AM 23.0 °F 12.4 °F 20.7 °F 91% 30.03 in 4.0 mi South 10.4 mph - N/A   Scattered Clouds
5:15 AM 23.0 °F 13.9 °F 20.5 °F 90% 30.03 in 4.0 mi South 8.1 mph - N/A   Scattered Clouds
5:35 AM 22.8 °F 12.9 °F 20.3 °F 90% 30.03 in 4.0 mi South 9.2 mph - N/A   Scattered Clouds
5:55 AM 22.6 °F 11.9 °F 20.3 °F 91% 30.03 in 4.0 mi South 10.4 mph - N/A   Scattered Clouds
6:15 AM 22.8 °F 13.6 °F 20.3 °F 90% 30.03 in 4.0 mi SSW 8.1 mph - N/A   Clear
6:35 AM 23.0 °F 12.4 °F 20.3 °F 89% 30.03 in 5.0 mi South 10.4 mph - N/A   Clear
6:55 AM 23.7 °F 13.3 °F 21.0 °F 89% 30.02 in 5.0 mi SSW 10.4 mph - N/A   Clear
7:15 AM 23.5 °F 11.8 °F 20.7 °F 89% 30.03 in 5.0 mi SSW 12.7 mph 17.3 mph N/A   Clear
7:35 AM 24.1 °F 12.5 °F 21.0 °F 88% 30.03 in 5.0 mi SSW 12.7 mph 16.1 mph N/A   Clear
7:55 AM 24.1 °F 13.1 °F 20.8 °F 87% 30.03 in 5.0 mi SSW 11.5 mph - N/A   Clear
8:15 AM 24.4 °F 13.0 °F 20.8 °F 86% 30.03 in 5.0 mi SSW 12.7 mph 24.2 mph N/A   Clear
8:35 AM 24.8 °F 14.6 °F 20.7 °F 84% 30.03 in 7.0 mi South 10.4 mph 16.1 mph N/A   Clear
8:55 AM 25.5 °F 14.9 °F 21.2 °F 84% 30.03 in 7.0 mi SSW 11.5 mph - N/A   Clear
9:15 AM 26.6 °F 17.5 °F 21.6 °F 81% 30.03 in 7.0 mi SSW 9.2 mph 17.3 mph N/A   Clear
9:35 AM 28.6 °F 19.3 °F 22.5 °F 78% 30.03 in 10.0 mi SSW 10.4 mph - N/A   Clear
9:55 AM 30.7 °F 22.6 °F 23.9 °F 76% 30.03 in 10.0 mi South 9.2 mph - N/A   Clear
10:15 AM 31.8 °F 23.9 °F 23.5 °F 71% 30.04 in 10.0 mi SSW 9.2 mph 18.4 mph N/A   Clear
10:35 AM 33.3 °F 25.1 °F 24.3 °F 70% 30.03 in 10.0 mi SSW 10.4 mph - N/A   Clear
10:55 AM 35.6 °F 28.6 °F 25.3 °F 66% 30.03 in 10.0 mi SSW 9.2 mph - N/A   Clear
11:15 AM 36.7 °F 29.9 °F 25.2 °F 63% 30.02 in 10.0 mi SSW 9.2 mph 16.1 mph N/A   Clear
11:35 AM 38.7 °F 31.4 °F 25.5 °F 59% 30.01 in 10.0 mi SSW 11.5 mph - N/A   Clear
11:55 AM 40.5 °F 35.1 °F 25.3 °F 55% 30.00 in 10.0 mi SSW 8.1 mph 20.7 mph N/A   Clear
12:15 PM 41.9 °F 35.0 °F 25.2 °F 52% 29.99 in 10.0 mi SSW 12.7 mph 19.6 mph N/A   Clear
12:35 PM 42.8 °F 36.6 °F 25.2 °F 50% 29.99 in 10.0 mi SW 11.5 mph - N/A   Clear
12:55 PM 42.8 °F 36.6 °F 25.0 °F 49% 29.99 in 10.0 mi SW 11.5 mph 19.6 mph N/A   Clear
1:15 PM 43.5 °F 36.4 °F 25.3 °F 49% 30.00 in 10.0 mi SW 15.0 mph 21.9 mph N/A   Clear
1:35 PM 44.1 °F 37.4 °F 25.3 °F 48% 29.99 in 10.0 mi SSW 13.8 mph 18.4 mph N/A   Clear
1:55 PM 44.1 °F 38.6 °F 25.7 °F 49% 29.99 in 10.0 mi SSW 10.4 mph 16.1 mph N/A   Clear
2:15 PM 43.7 °F 37.3 °F 25.7 °F 49% 30.00 in 10.0 mi SW 12.7 mph 19.6 mph N/A   Clear
2:35 PM 43.0 °F 36.0 °F 25.5 °F 50% 30.00 in 10.0 mi SW 13.8 mph 20.7 mph N/A   Clear
2:55 PM 42.6 °F 36.8 °F 26.1 °F 52% 30.00 in 10.0 mi SSW 10.4 mph 18.4 mph N/A   Clear
3:15 PM 41.9 °F 34.6 °F 26.2 °F 54% 30.01 in 10.0 mi SSW 13.8 mph - N/A   Clear
3:35 PM 41.5 °F 35.4 °F 27.1 °F 57% 30.01 in 10.0 mi SSW 10.4 mph - N/A   Clear
3:55 PM 40.3 °F 34.4 °F 27.7 °F 61% 30.02 in 10.0 mi South 9.2 mph - N/A   Clear
4:15 PM 38.5 °F 31.6 °F 27.7 °F 65% 30.03 in 10.0 mi South 10.4 mph - N/A   Clear
4:35 PM 36.5 °F 28.2 °F 27.3 °F 69% 30.03 in 10.0 mi South 12.7 mph - N/A   Clear
5:15 PM 36.5 °F 29.7 °F 28.4 °F 72% 30.04 in 10.0 mi SSW 9.2 mph - N/A   Clear
5:35 PM 36.5 °F 29.2 °F 28.4 °F 72% 30.04 in 10.0 mi SSW 10.4 mph 17.3 mph N/A   Clear
5:55 PM 36.5 °F 28.7 °F 28.4 °F 72% 30.05 in 10.0 mi SSW 11.5 mph 17.3 mph N/A   Clear
6:15 PM 36.5 °F 28.2 °F 28.6 °F 73% 30.05 in 10.0 mi SSW 12.7 mph - N/A   Clear
6:35 PM 35.8 °F 26.9 °F 28.2 °F 74% 30.05 in 10.0 mi SSW 13.8 mph 18.4 mph N/A   Clear
6:55 PM 35.1 °F 27.4 °F 27.7 °F 74% 30.06 in 10.0 mi SSW 10.4 mph - N/A   Clear
7:15 PM 33.8 °F 25.8 °F 27.1 °F 77% 30.07 in 10.0 mi SSW 10.4 mph - N/A   Clear
7:35 PM 32.9 °F 25.3 °F 26.4 °F 77% 30.08 in 10.0 mi SW 9.2 mph 16.1 mph N/A   Clear
7:55 PM 32.5 °F 24.2 °F 26.2 °F 78% 30.09 in 10.0 mi SW 10.4 mph 21.9 mph N/A   Clear
8:15 PM 31.8 °F 23.3 °F 26.1 °F 79% 30.09 in 10.0 mi SW 10.4 mph - N/A   Mostly Cloudy
8:35 PM 31.8 °F 22.3 °F 26.8 °F 82% 30.10 in 7.0 mi SW 12.7 mph 18.4 mph N/A   Overcast
8:55 PM 32.0 °F 21.2 °F 28.0 °F 85% 30.10 in 5.0 mi SW 16.1 mph 21.9 mph N/A   Overcast
9:15 PM 32.0 °F 23.0 °F 28.9 °F 88% 30.10 in 5.0 mi SW 11.5 mph 17.3 mph N/A   Overcast
9:35 PM 32.7 °F 23.9 °F 29.8 °F 89% 30.10 in 4.0 mi SW 11.5 mph 20.7 mph N/A   Overcast
9:55 PM 33.1 °F 23.9 °F 30.7 °F 91% 30.11 in 4.0 mi SW 12.7 mph 19.6 mph N/A   Overcast
10:15 PM 34.0 °F 24.6 °F 31.6 °F 91% 30.11 in 4.0 mi SW 13.8 mph 19.6 mph N/A   Overcast
10:35 PM 34.0 °F 26.0 °F 31.6 °F 91% 30.11 in 4.0 mi SW 10.4 mph 19.6 mph N/A   Overcast
10:55 PM 35.8 °F 27.3 °F 32.9 °F 89% 30.12 in 4.0 mi SW 12.7 mph 24.2 mph N/A   Overcast
11:35 PM 36.5 °F 29.7 °F 33.3 °F 88% 30.13 in 4.0 mi WSW 9.2 mph - N/A   Overcast
11:55 PM 36.5 °F 31.8 °F 33.3 °F 88% 30.13 in 4.0 mi SW 5.8 mph - N/A   Overcast